| time (UTC) | temp C | wind direction | speed KPH | gust KPH | rain 1hr cm | rain 24hr cm | rain mn cm | humidity % | barometer mb |
| 20260508095728 | 20 | 0 | 11.3 | 17.7 | 0.00 | 0.00 | 0.00 | 49 | 1020.1 |
| 20260508095228 | 21 | 317 | 11.3 | 17.7 | 0.00 | 0.00 | 0.00 | 53 | 1020.0 |
| 20260508094730 | 21 | 0 | 6.4 | 11.3 | 0.00 | 0.00 | 0.00 | 53 | 1020.0 |
| 20260508094229 | 21 | 314 | 8.0 | 11.3 | 0.00 | 0.00 | 0.00 | 53 | 1020.0 |
| 20260508093730 | 21 | 127 | 3.2 | 9.7 | 0.00 | 0.00 | 0.00 | 53 | 1019.9 |
| 20260508093227 | 21 | 0 | 4.8 | 16.1 | 0.00 | 0.00 | 0.00 | 51 | 1019.9 |
| 20260508092725 | 22 | 0 | 8.0 | 16.1 | 0.00 | 0.00 | 0.00 | 51 | 1019.9 |
| 20260508092224 | 22 | 289 | 1.6 | 8.0 | 0.00 | 0.00 | 0.00 | 40 | 1020.1 |
| 20260508091948 | 22 | 0 | 6.4 | 8.0 | 0.00 | 0.00 | 0.00 | 39 | 1020.1 |
| 20260508091223 | 22 | 175 | 3.2 | 8.0 | 0.00 | 0.00 | 0.00 | 39 | 1019.9 |
| 20260508090723 | 22 | 176 | 4.8 | 8.0 | 0.00 | 0.00 | 0.00 | 38 | 1019.9 |
| 20260508090224 | 22 | 202 | 3.2 | 6.4 | 0.00 | 0.00 | 0.00 | 38 | 1019.9 |
| 20260508085724 | 22 | 197 | 3.2 | 6.4 | 0.00 | 0.00 | 0.00 | 42 | 1019.8 |
| 20260508085223 | 22 | 199 | 1.6 | 4.8 | 0.00 | 0.00 | 0.00 | 44 | 1019.7 |
| 20260508084722 | 22 | 195 | 1.6 | 9.7 | 0.00 | 0.00 | 0.00 | 44 | 1019.7 |
| 20260508084219 | 22 | 195 | 4.8 | 9.7 | 0.00 | 0.00 | 0.00 | 44 | 1019.7 |
| 20260508083718 | 22 | 209 | 3.2 | 8.0 | 0.00 | 0.00 | 0.00 | 43 | 1019.7 |
| 20260508083219 | 22 | 161 | 6.4 | 8.0 | 0.00 | 0.00 | 0.00 | 42 | 1019.8 |
| 20260508082720 | 21 | 213 | 1.6 | 9.7 | 0.00 | 0.00 | 0.00 | 43 | 1019.8 |
| 20260508082219 | 22 | 269 | 6.4 | 9.7 | 0.00 | 0.00 | 0.00 | 47 | 1019.7 |
| 20260508081717 | 22 | 312 | 4.8 | 9.7 | 0.00 | 0.00 | 0.00 | 44 | 1019.7 |
| 20260508081214 | 22 | 221 | 3.2 | 9.7 | 0.00 | 0.00 | 0.00 | 40 | 1019.7 |
| 20260508080715 | 21 | 212 | 6.4 | 9.7 | 0.00 | 0.00 | 0.00 | 41 | 1019.7 |
| 20260508080215 | 21 | 210 | 4.8 | 8.0 | 0.00 | 0.00 | 0.00 | 41 | 1019.6 |
| 20260508075713 | 21 | 213 | 6.4 | 9.7 | 0.00 | 0.00 | 0.00 | 42 | 1019.6 |
| 20260508075215 | 22 | 0 | 4.8 | 11.3 | 0.00 | 0.00 | 0.00 | 42 | 1019.6 |
| 20260508074715 | 22 | 230 | 6.4 | 11.3 | 0.00 | 0.00 | 0.00 | 42 | 1019.5 |
| 20260508074211 | 22 | 241 | 3.2 | 8.0 | 0.00 | 0.00 | 0.00 | 41 | 1019.4 |
| 20260508073706 | 22 | 0 | 3.2 | 11.3 | 0.00 | 0.00 | 0.00 | 39 | 1019.3 |
| 20260508073206 | 22 | 203 | 4.8 | 11.3 | 0.00 | 0.00 | 0.00 | 39 | 1019.1 |
| 20260508072707 | 22 | 180 | 6.4 | 14.5 | 0.00 | 0.00 | 0.00 | 38 | 1018.9 |
| 20260508072437 | 22 | 0 | 9.7 | 17.7 | 0.00 | 0.00 | 0.00 | 39 | 1018.8 |
| 20260508071706 | 22 | 0 | 9.7 | 19.3 | 0.00 | 0.00 | 0.00 | 39 | 1018.7 |
| 20260508071207 | 22 | 0 | 11.3 | 19.3 | 0.00 | 0.00 | 0.00 | 40 | 1018.6 |
| 20260508070707 | 22 | 0 | 11.3 | 16.1 | 0.00 | 0.00 | 0.00 | 42 | 1018.5 |
| 20260508070205 | 21 | 0 | 9.7 | 16.1 | 0.00 | 0.00 | 0.00 | 43 | 1018.3 |
| 20260508065704 | 21 | 161 | 6.4 | 14.5 | 0.00 | 0.00 | 0.00 | 44 | 1018.3 |
| 20260508065205 | 21 | 171 | 6.4 | 11.3 | 0.00 | 0.00 | 0.00 | 48 | 1018.3 |
| 20260508064705 | 21 | 175 | 6.4 | 8.0 | 0.00 | 0.00 | 0.00 | 48 | 1018.3 |
| 20260508064205 | 21 | 172 | 3.2 | 6.4 | 0.00 | 0.00 | 0.00 | 48 | 1018.1 |
| 20260508063702 | 21 | 169 | 3.2 | 8.0 | 0.00 | 0.00 | 0.00 | 46 | 1018.0 |
| 20260508063204 | 21 | 176 | 4.8 | 8.0 | 0.00 | 0.00 | 0.00 | 45 | 1017.9 |
| 20260508062701 | 21 | 148 | 4.8 | 6.4 | 0.00 | 0.00 | 0.00 | 43 | 1017.9 |
| 20260508062200 | 22 | 166 | 3.2 | 8.0 | 0.00 | 0.00 | 0.00 | 42 | 1017.8 |
| 20260508061701 | 22 | 165 | 3.2 | 8.0 | 0.00 | 0.00 | 0.00 | 41 | 1017.7 |
| 20260508061426 | 21 | 135 | 1.6 | 8.0 | 0.00 | 0.00 | 0.00 | 40 | 1017.6 |
| 20260508060702 | 21 | 62 | 3.2 | 16.1 | 0.00 | 0.00 | 0.00 | 40 | 1017.7 |
| 20260508060159 | 21 | 0 | 6.4 | 16.1 | 0.00 | 0.00 | 0.00 | 42 | 1017.6 |
| 20260508055659 | 21 | 59 | 6.4 | 17.7 | 0.00 | 0.00 | 0.00 | 41 | 1017.5 |
| 20260508055159 | 21 | 0 | 11.3 | 17.7 | 0.00 | 0.00 | 0.00 | 41 | 1017.4 |
| 20260508054656 | 21 | 8 | 11.3 | 17.7 | 0.00 | 0.00 | 0.00 | 39 | 1017.5 |
| 20260508054156 | 21 | 0 | 11.3 | 17.7 | 0.00 | 0.00 | 0.00 | 39 | 1017.4 |
| 20260508053658 | 21 | 355 | 4.8 | 8.0 | 0.00 | 0.00 | 0.00 | 37 | 1017.3 |
| 20260508053157 | 21 | 275 | 3.2 | 4.8 | 0.00 | 0.00 | 0.00 | 39 | 1017.1 |
| 20260508052658 | 21 | 254 | 0.0 | 6.4 | 0.00 | 0.00 | 0.00 | 39 | 1017.1 |
| 20260508052152 | 21 | 252 | 1.6 | 9.7 | 0.00 | 0.00 | 0.00 | 38 | 1017.1 |
| 20260508051653 | 21 | 0 | 4.8 | 14.5 | 0.00 | 0.00 | 0.00 | 44 | 1017.1 |
| 20260508051153 | 20 | 0 | 9.7 | 14.5 | 0.00 | 0.00 | 0.00 | 43 | 1017.0 |
| 20260508050907 | 20 | 24 | 4.8 | 8.0 | 0.00 | 0.00 | 0.00 | 39 | 1017.2 |
| 20260508050146 | 20 | 310 | 3.2 | 8.0 | 0.00 | 0.00 | 0.00 | 38 | 1016.9 |
| 20260508045910 | 20 | 0 | 4.8 | 8.0 | 0.00 | 0.00 | 0.00 | 36 | 1016.7 |
| 20260508045407 | 19 | 285 | 3.2 | 8.0 | 0.00 | 0.00 | 0.00 | 39 | 1016.7 |
| 20260508044644 | 18 | 347 | 3.2 | 6.4 | 0.00 | 0.00 | 0.00 | 41 | 1016.7 |
| 20260508044144 | 18 | 316 | 4.8 | 6.4 | 0.00 | 0.00 | 0.00 | 42 | 1016.8 |
| 20260508043642 | 17 | 313 | 4.8 | 4.8 | 0.00 | 0.00 | 0.00 | 43 | 1016.7 |
| 20260508043141 | 17 | 313 | 1.6 | 6.4 | 0.00 | 0.00 | 0.00 | 45 | 1016.6 |
| 20260508042910 | 16 | 312 | 3.2 | 6.4 | 0.00 | 0.00 | 0.00 | 45 | 1016.6 |
| 20260508042142 | 16 | 307 | 3.2 | 4.8 | 0.00 | 0.00 | 0.00 | 45 | 1016.8 |
| 20260508041639 | 16 | 316 | 0.0 | 6.4 | 0.00 | 0.00 | 0.00 | 44 | 1016.8 |
| 20260508041141 | 16 | 316 | 1.6 | 6.4 | 0.00 | 0.00 | 0.00 | 43 | 1016.8 |
| 20260508040641 | 16 | 324 | 3.2 | 6.4 | 0.00 | 0.00 | 0.00 | 42 | 1016.9 |
| 20260508040415 | 16 | 289 | 3.2 | 6.4 | 0.00 | 0.00 | 0.00 | 43 | 1016.9 |
| 20260508040140 | 16 | 319 | 4.8 | 6.4 | 0.00 | 0.00 | 0.00 | 43 | 1016.9 |
| 20260508035359 | 16 | 1 | 6.4 | 8.0 | 0.00 | 0.00 | 0.00 | 43 | 1016.9 |
| 20260508035128 | 16 | 290 | 6.4 | 8.0 | 0.00 | 0.00 | 0.00 | 44 | 1016.7 |
| 20260508034843 | 16 | 0 | 6.4 | 8.0 | 0.00 | 0.00 | 0.00 | 43 | 1016.9 |
| 20260508033636 | 16 | 329 | 4.8 | 8.0 | 0.00 | 0.00 | 0.00 | 44 | 1016.9 |
| 20260508033136 | 15 | 0 | 6.4 | 8.0 | 0.00 | 0.00 | 0.00 | 46 | 1016.9 |
| 20260508032634 | 15 | 336 | 4.8 | 8.0 | 0.00 | 0.00 | 0.00 | 47 | 1016.8 |
| 20260508032135 | 15 | 320 | 4.8 | 6.4 | 0.00 | 0.00 | 0.00 | 49 | 1016.9 |
| 20260508031634 | 15 | 0 | 6.4 | 6.4 | 0.00 | 0.00 | 0.00 | 48 | 1016.9 |
| 20260508031135 | 15 | 334 | 4.8 | 6.4 | 0.00 | 0.00 | 0.00 | 49 | 1017.1 |
| 20260508030634 | 15 | 314 | 4.8 | 6.4 | 0.00 | 0.00 | 0.00 | 50 | 1017.1 |
| 20260508030134 | 15 | 0 | 4.8 | 6.4 | 0.00 | 0.00 | 0.00 | 50 | 1017.0 |
| 20260508025634 | 15 | 313 | 4.8 | 6.4 | 0.00 | 0.00 | 0.00 | 51 | 1017.2 |
| 20260508025133 | 15 | 306 | 0.0 | 6.4 | 0.00 | 0.00 | 0.00 | 51 | 1017.1 |
| 20260508024633 | 15 | 306 | 3.2 | 9.7 | 0.00 | 0.00 | 0.00 | 51 | 1017.2 |
| 20260508024400 | 15 | 0 | 6.4 | 9.7 | 0.00 | 0.00 | 0.00 | 51 | 1017.1 |
| 20260508023630 | 15 | 0 | 6.4 | 8.0 | 0.00 | 0.00 | 0.00 | 52 | 1017.1 |
| 20260508023131 | 15 | 319 | 6.4 | 8.0 | 0.00 | 0.00 | 0.00 | 52 | 1017.1 |
| 20260508022843 | 16 | 0 | 4.8 | 6.4 | 0.00 | 0.00 | 0.00 | 52 | 1017.2 |
| 20260508022826 | 16 | 319 | 4.8 | 6.4 | 0.00 | 0.00 | 0.00 | 52 | 1017.1 |
| 20260508021629 | 16 | 0 | 1.6 | 6.4 | 0.00 | 0.00 | 0.00 | 52 | 1017.2 |
| 20260508021130 | 16 | 309 | 3.2 | 6.4 | 0.00 | 0.00 | 0.00 | 52 | 1017.3 |
| 20260508020631 | 16 | 324 | 0.0 | 4.8 | 0.00 | 0.00 | 0.00 | 52 | 1017.2 |
| 20260508020128 | 16 | 324 | 3.2 | 4.8 | 0.00 | 0.00 | 0.00 | 52 | 1017.2 |
| 20260508015627 | 16 | 324 | 3.2 | 6.4 | 0.00 | 0.00 | 0.00 | 52 | 1017.3 |
| 20260508015127 | 16 | 341 | 3.2 | 6.4 | 0.00 | 0.00 | 0.00 | 52 | 1017.4 |
| 20260508014851 | 16 | 319 | 4.8 | 6.4 | 0.00 | 0.00 | 0.00 | 52 | 1017.3 |
| 20260508014126 | 16 | 30 | 1.6 | 3.2 | 0.00 | 0.00 | 0.00 | 52 | 1017.2 |
| 20260508013622 | 16 | 44 | 1.6 | 3.2 | 0.00 | 0.00 | 0.00 | 52 | 1017.4 |
| 20260508013122 | 16 | 334 | 0.0 | 6.4 | 0.00 | 0.00 | 0.00 | 52 | 1017.3 |
| 20260508012622 | 16 | 333 | 3.2 | 6.4 | 0.00 | 0.00 | 0.00 | 52 | 1017.3 |
| 20260508012121 | 16 | 0 | 3.2 | 6.4 | 0.00 | 0.00 | 0.00 | 52 | 1017.3 |
| 20260508011621 | 16 | 295 | 4.8 | 6.4 | 0.00 | 0.00 | 0.00 | 53 | 1017.2 |
| 20260508011121 | 16 | 321 | 3.2 | 6.4 | 0.00 | 0.00 | 0.00 | 53 | 1017.3 |
| 20260508010620 | 16 | 354 | 4.8 | 4.8 | 0.00 | 0.00 | 0.00 | 53 | 1017.5 |
| 20260508010119 | 16 | 326 | 1.6 | 4.8 | 0.00 | 0.00 | 0.00 | 53 | 1017.5 |
| 20260508005619 | 16 | 326 | 3.2 | 6.4 | 0.00 | 0.00 | 0.00 | 53 | 1017.6 |
| 20260508005119 | 16 | 338 | 3.2 | 6.4 | 0.00 | 0.00 | 0.00 | 53 | 1017.7 |
| 20260508004618 | 16 | 0 | 4.8 | 6.4 | 0.00 | 0.00 | 0.00 | 53 | 1017.7 |
| 20260508004118 | 16 | 323 | 3.2 | 4.8 | 0.00 | 0.00 | 0.00 | 53 | 1017.8 |
| 20260508003618 | 16 | 329 | 3.2 | 4.8 | 0.00 | 0.00 | 0.00 | 53 | 1017.9 |
| 20260508003119 | 16 | 0 | 1.6 | 8.0 | 0.00 | 0.00 | 0.00 | 53 | 1017.9 |
| 20260508002618 | 16 | 351 | 3.2 | 8.0 | 0.00 | 0.00 | 0.00 | 53 | 1017.8 |
| 20260508002118 | 16 | 323 | 3.2 | 3.2 | 0.00 | 0.00 | 0.00 | 52 | 1017.8 |
| 20260508001618 | 16 | 321 | 3.2 | 4.8 | 0.00 | 0.00 | 0.00 | 52 | 1017.8 |
| 20260508001118 | 16 | 324 | 3.2 | 4.8 | 0.00 | 0.00 | 0.00 | 52 | 1017.7 |
| 20260508000618 | 16 | 343 | 3.2 | 6.4 | 0.00 | 0.00 | 0.00 | 52 | 1017.8 |
| 20260508000119 | 16 | 340 | 4.8 | 8.0 | 0.00 | 0.00 | 0.00 | 52 | 1017.8 |
| 20260507235839 | 16 | 307 | 4.8 | 8.0 | 0.00 | 0.00 | 0.00 | 53 | 1017.8 |
| 20260507235119 | 16 | 0 | 4.8 | 8.0 | 0.00 | 0.00 | 0.00 | 54 | 1017.9 |
| 20260507234618 | 16 | 296 | 4.8 | 6.4 | 0.00 | 0.00 | 0.00 | 54 | 1018.0 |
| 20260507234118 | 16 | 303 | 3.2 | 4.8 | 0.00 | 0.00 | 0.00 | 55 | 1018.1 |
| 20260507233847 | 16 | 309 | 3.2 | 4.8 | 0.00 | 0.00 | 0.00 | 55 | 1018.3 |
| 20260507233118 | 16 | 316 | 0.0 | 3.2 | 0.00 | 0.00 | 0.00 | 55 | 1018.3 |
| 20260507232618 | 16 | 299 | 1.6 | 4.8 | 0.00 | 0.00 | 0.00 | 56 | 1018.4 |
| 20260507232117 | 16 | 324 | 3.2 | 6.4 | 0.00 | 0.00 | 0.00 | 56 | 1018.3 |
| 20260507231838 | 16 | 338 | 4.8 | 6.4 | 0.00 | 0.00 | 0.00 | 56 | 1018.3 |
| 20260507231118 | 16 | 329 | 3.2 | 6.4 | 0.00 | 0.00 | 0.00 | 56 | 1018.3 |
| 20260507230616 | 16 | 312 | 3.2 | 4.8 | 0.00 | 0.00 | 0.00 | 56 | 1018.3 |
| 20260507230117 | 16 | 313 | 3.2 | 4.8 | 0.00 | 0.00 | 0.00 | 56 | 1018.5 |
| 20260507225617 | 16 | 313 | 3.2 | 3.2 | 0.00 | 0.00 | 0.00 | 56 | 1018.6 |
| 20260507225116 | 16 | 314 | 3.2 | 4.8 | 0.00 | 0.00 | 0.00 | 56 | 1018.6 |
| 20260507224617 | 16 | 314 | 1.6 | 4.8 | 0.00 | 0.00 | 0.00 | 56 | 1018.5 |
| 20260507224116 | 16 | 312 | 3.2 | 6.4 | 0.00 | 0.00 | 0.00 | 57 | 1018.7 |
| 20260507223616 | 16 | 321 | 3.2 | 6.4 | 0.00 | 0.00 | 0.00 | 57 | 1018.8 |
| 20260507223117 | 16 | 307 | 3.2 | 4.8 | 0.00 | 0.00 | 0.00 | 57 | 1018.8 |
| 20260507222617 | 16 | 329 | 1.6 | 4.8 | 0.00 | 0.00 | 0.00 | 57 | 1018.8 |
| 20260507222115 | 16 | 329 | 0.0 | 3.2 | 0.00 | 0.00 | 0.00 | 57 | 1018.7 |
| 20260507221616 | 16 | 330 | 1.6 | 4.8 | 0.00 | 0.00 | 0.00 | 57 | 1018.7 |
| 20260507221116 | 16 | 330 | 3.2 | 6.4 | 0.00 | 0.00 | 0.00 | 57 | 1018.6 |
| 20260507220616 | 16 | 317 | 3.2 | 6.4 | 0.00 | 0.00 | 0.00 | 57 | 1018.5 |
| 20260507220336 | 16 | 316 | 3.2 | 4.8 | 0.00 | 0.00 | 0.00 | 57 | 1018.5 |
| 20260507215616 | 16 | 313 | 3.2 | 4.8 | 0.00 | 0.00 | 0.00 | 58 | 1018.6 |
| 20260507215116 | 16 | 313 | 3.2 | 4.8 | 0.00 | 0.00 | 0.00 | 58 | 1018.6 |
| 20260507214837 | 16 | 314 | 0.0 | 4.8 | 0.00 | 0.00 | 0.00 | 58 | 1018.7 |
| 20260507214116 | 16 | 317 | 3.2 | 4.8 | 0.00 | 0.00 | 0.00 | 58 | 1018.7 |
| 20260507213616 | 16 | 319 | 0.0 | 3.2 | 0.00 | 0.00 | 0.00 | 58 | 1018.7 |
| 20260507213116 | 16 | 316 | 3.2 | 3.2 | 0.00 | 0.00 | 0.00 | 58 | 1018.8 |
| 20260507212616 | 16 | 321 | 0.0 | 4.8 | 0.00 | 0.00 | 0.00 | 58 | 1018.9 |
| 20260507212114 | 16 | 321 | 3.2 | 4.8 | 0.00 | 0.00 | 0.00 | 58 | 1018.9 |
| 20260507211615 | 16 | 323 | 0.0 | 6.4 | 0.00 | 0.00 | 0.00 | 58 | 1018.7 |
| 20260507211114 | 16 | 340 | 1.6 | 6.4 | 0.00 | 0.00 | 0.00 | 58 | 1018.7 |
| 20260507210839 | 16 | 0 | 3.2 | 6.4 | 0.00 | 0.00 | 0.00 | 57 | 1018.6 |
| 20260507210113 | 16 | 321 | 0.0 | 4.8 | 0.00 | 0.00 | 0.00 | 58 | 1018.5 |
| 20260507205614 | 16 | 306 | 1.6 | 6.4 | 0.00 | 0.00 | 0.00 | 58 | 1018.6 |
| 20260507205113 | 16 | 309 | 4.8 | 6.4 | 0.00 | 0.00 | 0.00 | 57 | 1018.7 |
| 20260507204613 | 16 | 314 | 0.0 | 0.0 | 0.00 | 0.00 | 0.00 | 58 | 1018.6 |
| 20260507204336 | 16 | 314 | 0.0 | 0.0 | 0.00 | 0.00 | 0.00 | 57 | 1018.8 |
| 20260507203614 | 16 | 314 | 0.0 | 0.0 | 0.00 | 0.00 | 0.00 | 57 | 1018.8 |
| 20260507203113 | 16 | 314 | 0.0 | 0.0 | 0.00 | 0.00 | 0.00 | 57 | 1018.7 |
| 20260507202841 | 16 | 314 | 0.0 | 0.0 | 0.00 | 0.00 | 0.00 | 57 | 1018.7 |
| 20260507202114 | 16 | 313 | 0.0 | 1.6 | 0.00 | 0.00 | 0.00 | 57 | 1018.6 |
| 20260507201612 | 17 | 313 | 0.0 | 4.8 | 0.00 | 0.00 | 0.00 | 57 | 1018.5 |
| 20260507201111 | 17 | 0 | 3.2 | 4.8 | 0.00 | 0.00 | 0.00 | 57 | 1018.5 |
| 20260507200613 | 17 | 316 | 0.0 | 0.0 | 0.00 | 0.00 | 0.00 | 57 | 1018.3 |
| 20260507200112 | 17 | 321 | 0.0 | 0.0 | 0.00 | 0.00 | 0.00 | 57 | 1018.4 |
| 20260507195838 | 17 | 321 | 0.0 | 0.0 | 0.00 | 0.00 | 0.00 | 57 | 1018.6 |
| 20260507195113 | 17 | 321 | 0.0 | 0.0 | 0.00 | 0.00 | 0.00 | 57 | 1018.6 |
| 20260507194612 | 17 | 321 | 0.0 | 0.0 | 0.00 | 0.00 | 0.00 | 57 | 1018.6 |
| 20260507194112 | 17 | 321 | 0.0 | 0.0 | 0.00 | 0.00 | 0.00 | 57 | 1018.5 |
| 20260507193612 | 17 | 321 | 0.0 | 0.0 | 0.00 | 0.00 | 0.00 | 57 | 1018.6 |
| 20260507193111 | 17 | 321 | 0.0 | 0.0 | 0.00 | 0.00 | 0.00 | 57 | 1018.7 |
| 20260507192611 | 17 | 321 | 0.0 | 0.0 | 0.00 | 0.00 | 0.00 | 57 | 1018.6 |
| 20260507192331 | 17 | 321 | 0.0 | 0.0 | 0.00 | 0.00 | 0.00 | 57 | 1018.6 |
| 20260507191611 | 17 | 314 | 0.0 | 0.0 | 0.00 | 0.00 | 0.00 | 57 | 1018.6 |
| 20260507191112 | 17 | 305 | 0.0 | 4.8 | 0.00 | 0.00 | 0.00 | 57 | 1018.7 |
| 20260507190611 | 17 | 303 | 0.0 | 4.8 | 0.00 | 0.00 | 0.00 | 57 | 1018.8 |
| 20260507190110 | 17 | 306 | 1.6 | 4.8 | 0.00 | 0.00 | 0.00 | 57 | 1018.8 |
| 20260507185611 | 17 | 321 | 1.6 | 4.8 | 0.00 | 0.00 | 0.00 | 57 | 1018.8 |
| 20260507185111 | 17 | 353 | 0.0 | 6.4 | 0.00 | 0.00 | 0.00 | 57 | 1018.8 |
| 20260507184611 | 17 | 351 | 3.2 | 6.4 | 0.00 | 0.00 | 0.00 | 57 | 1018.7 |
| 20260507184113 | 17 | 299 | 3.2 | 6.4 | 0.00 | 0.00 | 0.00 | 57 | 1018.8 |
| 20260507184105 | 17 | 264 | 0.0 | 4.8 | 0.00 | 0.00 | 0.00 | 57 | 1018.7 |
| 20260507183111 | 17 | 264 | 0.0 | 4.8 | 0.00 | 0.00 | 0.00 | 57 | 1018.6 |
| 20260507182610 | 17 | 231 | 0.0 | 0.0 | 0.00 | 0.00 | 0.00 | 57 | 1018.6 |
| 20260507182110 | 18 | 173 | 0.0 | 0.0 | 0.00 | 0.00 | 0.00 | 57 | 1018.7 |
| 20260507181610 | 18 | 172 | 0.0 | 0.0 | 0.00 | 0.00 | 0.00 | 57 | 1018.7 |
| 20260507181110 | 18 | 172 | 0.0 | 0.0 | 0.00 | 0.00 | 0.00 | 57 | 1018.6 |
| 20260507180610 | 18 | 171 | 0.0 | 0.0 | 0.00 | 0.00 | 0.00 | 57 | 1018.6 |
| 20260507180109 | 18 | 171 | 0.0 | 0.0 | 0.00 | 0.00 | 0.00 | 57 | 1018.6 |
| 20260507175609 | 18 | 171 | 0.0 | 0.0 | 0.00 | 0.00 | 0.00 | 57 | 1018.5 |
| 20260507175109 | 18 | 172 | 0.0 | 0.0 | 0.00 | 0.00 | 0.00 | 57 | 1018.6 |
| 20260507174609 | 18 | 171 | 0.0 | 0.0 | 0.00 | 0.00 | 0.00 | 57 | 1018.6 |
| 20260507174110 | 18 | 171 | 0.0 | 0.0 | 0.00 | 0.00 | 0.00 | 56 | 1018.5 |
| 20260507173839 | 19 | 171 | 0.0 | 1.6 | 0.00 | 0.00 | 0.00 | 57 | 1018.4 |
| 20260507173330 | 19 | 171 | 0.0 | 1.6 | 0.00 | 0.00 | 0.00 | 56 | 1018.4 |
| 20260507172610 | 20 | 171 | 0.0 | 1.6 | 0.00 | 0.00 | 0.00 | 57 | 1018.3 |
| 20260507172110 | 20 | 171 | 0.0 | 3.2 | 0.00 | 0.00 | 0.00 | 57 | 1018.4 |
| 20260507171609 | 20 | 171 | 0.0 | 3.2 | 0.00 | 0.00 | 0.00 | 57 | 1018.6 |
| 20260507171109 | 20 | 171 | 1.6 | 3.2 | 0.00 | 0.00 | 0.00 | 57 | 1018.5 |
| 20260507170621 | 20 | 171 | 0.0 | 0.0 | 0.00 | 0.00 | 0.00 | 56 | 1018.7 |
| 20260507170108 | 20 | 171 | 0.0 | 3.2 | 0.00 | 0.00 | 0.00 | 56 | 1018.5 |
| 20260507165608 | 20 | 171 | 0.0 | 4.8 | 0.00 | 0.00 | 0.00 | 56 | 1018.3 |
| 20260507165330 | 20 | 171 | 3.2 | 4.8 | 0.00 | 0.00 | 0.00 | 55 | 1018.3 |
| 20260507164609 | 20 | 171 | 0.0 | 0.0 | 0.00 | 0.00 | 0.00 | 55 | 1018.3 |
| 20260507164333 | 21 | 171 | 0.0 | 0.0 | 0.00 | 0.00 | 0.00 | 55 | 1018.4 |
| 20260507163606 | 21 | 171 | 0.0 | 0.0 | 0.00 | 0.00 | 0.00 | 54 | 1018.2 |
| 20260507163107 | 21 | 171 | 0.0 | 3.2 | 0.00 | 0.00 | 0.00 | 54 | 1018.2 |
| 20260507162608 | 21 | 171 | 1.6 | 4.8 | 0.00 | 0.00 | 0.00 | 53 | 1018.2 |
| 20260507162107 | 21 | 171 | 1.6 | 4.8 | 0.00 | 0.00 | 0.00 | 52 | 1018.2 |
| 20260507161829 | 21 | 171 | 1.6 | 4.8 | 0.00 | 0.00 | 0.00 | 51 | 1018.3 |
| 20260507161108 | 21 | 171 | 3.2 | 4.8 | 0.00 | 0.00 | 0.00 | 50 | 1018.3 |
| 20260507160608 | 21 | 169 | 0.0 | 4.8 | 0.00 | 0.00 | 0.00 | 48 | 1018.2 |
| 20260507160329 | 22 | 169 | 3.2 | 4.8 | 0.00 | 0.00 | 0.00 | 48 | 1018.4 |
| 20260507155607 | 22 | 175 | 3.2 | 4.8 | 0.00 | 0.00 | 0.00 | 46 | 1018.2 |
| 20260507155104 | 22 | 192 | 0.0 | 4.8 | 0.00 | 0.00 | 0.00 | 43 | 1018.3 |
| 20260507154606 | 21 | 0 | 0.0 | 3.2 | 0.00 | 0.00 | 0.00 | 42 | 1018.1 |
| 20260507154107 | 21 | 252 | 0.0 | 3.2 | 0.00 | 0.00 | 0.00 | 43 | 1018.1 |
| 20260507153606 | 21 | 252 | 0.0 | 4.8 | 0.00 | 0.00 | 0.00 | 45 | 1018.0 |
| 20260507153108 | 21 | 252 | 1.6 | 8.0 | 0.00 | 0.00 | 0.00 | 46 | 1018.1 |
| 20260507152605 | 21 | 210 | 1.6 | 8.0 | 0.00 | 0.00 | 0.00 | 47 | 1018.1 |
| 20260507152106 | 21 | 195 | 6.4 | 8.0 | 0.00 | 0.00 | 0.00 | 48 | 1018.1 |
| 20260507151607 | 22 | 221 | 3.2 | 8.0 | 0.00 | 0.00 | 0.00 | 48 | 1018.2 |
| 20260507151106 | 22 | 161 | 4.8 | 8.0 | 0.00 | 0.00 | 0.00 | 48 | 1018.3 |
| 20260507150604 | 22 | 183 | 3.2 | 9.7 | 0.00 | 0.00 | 0.00 | 47 | 1018.3 |
| 20260507150105 | 22 | 196 | 3.2 | 9.7 | 0.00 | 0.00 | 0.00 | 45 | 1018.2 |
| 20260507145605 | 21 | 207 | 6.4 | 9.7 | 0.00 | 0.00 | 0.00 | 43 | 1018.3 |
| 20260507145106 | 21 | 192 | 6.4 | 9.7 | 0.00 | 0.00 | 0.00 | 43 | 1018.2 |
| 20260507144833 | 22 | 243 | 4.8 | 9.7 | 0.00 | 0.00 | 0.00 | 42 | 1018.1 |
| 20260507144331 | 22 | 175 | 6.4 | 11.3 | 0.00 | 0.00 | 0.00 | 42 | 1018.2 |
| 20260507143604 | 22 | 228 | 8.0 | 11.3 | 0.00 | 0.00 | 0.00 | 42 | 1018.3 |
| 20260507143106 | 22 | 0 | 6.4 | 11.3 | 0.00 | 0.00 | 0.00 | 44 | 1018.2 |
| 20260507142605 | 22 | 220 | 3.2 | 11.3 | 0.00 | 0.00 | 0.00 | 45 | 1018.1 |
| 20260507142330 | 21 | 238 | 6.4 | 11.3 | 0.00 | 0.00 | 0.00 | 45 | 1018.2 |
| 20260507141606 | 21 | 182 | 4.8 | 11.3 | 0.00 | 0.00 | 0.00 | 45 | 1018.3 |
| 20260507141104 | 21 | 0 | 8.0 | 14.5 | 0.00 | 0.00 | 0.00 | 46 | 1018.3 |
| 20260507140605 | 21 | 257 | 4.8 | 14.5 | 0.00 | 0.00 | 0.00 | 50 | 1018.3 |
| 20260507140104 | 21 | 235 | 6.4 | 11.3 | 0.00 | 0.00 | 0.00 | 51 | 1018.2 |
| 20260507135826 | 20 | 233 | 6.4 | 11.3 | 0.00 | 0.00 | 0.00 | 52 | 1018.2 |
| 20260507135105 | 21 | 0 | 4.8 | 11.3 | 0.00 | 0.00 | 0.00 | 54 | 1018.3 |
| 20260507134604 | 21 | 0 | 4.8 | 16.1 | 0.00 | 0.00 | 0.00 | 55 | 1018.4 |
| 20260507134106 | 21 | 223 | 9.7 | 16.1 | 0.00 | 0.00 | 0.00 | 54 | 1018.5 |
| 20260507133604 | 21 | 190 | 4.8 | 11.3 | 0.00 | 0.00 | 0.00 | 55 | 1018.6 |
| 20260507133103 | 21 | 200 | 8.0 | 14.5 | 0.00 | 0.00 | 0.00 | 53 | 1018.6 |
| 20260507132603 | 21 | 214 | 8.0 | 16.1 | 0.00 | 0.00 | 0.00 | 51 | 1018.8 |
| 20260507132104 | 22 | 0 | 9.7 | 16.1 | 0.00 | 0.00 | 0.00 | 50 | 1018.7 |
| 20260507131604 | 22 | 0 | 4.8 | 16.1 | 0.00 | 0.00 | 0.00 | 50 | 1018.5 |
| 20260507131103 | 22 | 257 | 9.7 | 16.1 | 0.00 | 0.00 | 0.00 | 50 | 1018.3 |
| 20260507130605 | 22 | 166 | 6.4 | 14.5 | 0.00 | 0.00 | 0.00 | 50 | 1018.2 |
| 20260507125604 | 22 | 207 | 9.7 | 16.1 | 0.00 | 0.00 | 0.00 | 51 | 1018.6 |
| 20260507125102 | 22 | 0 | 9.7 | 16.1 | 0.00 | 0.00 | 0.00 | 52 | 1018.7 |
| 20260507124603 | 22 | 0 | 6.4 | 14.5 | 0.00 | 0.00 | 0.00 | 52 | 1018.8 |
| 20260507124102 | 22 | 0 | 8.0 | 14.5 | 0.00 | 0.00 | 0.00 | 51 | 1018.8 |
| 20260507123603 | 22 | 0 | 6.4 | 17.7 | 0.00 | 0.00 | 0.00 | 52 | 1018.9 |
| 20260507123103 | 22 | 185 | 9.7 | 17.7 | 0.00 | 0.00 | 0.00 | 50 | 1019.1 |
| 20260507122603 | 22 | 154 | 4.8 | 14.5 | 0.00 | 0.00 | 0.00 | 50 | 1019.0 |
| 20260507122104 | 22 | 172 | 3.2 | 16.1 | 0.00 | 0.00 | 0.00 | 51 | 1019.1 |
| 20260507122053 | 22 | 0 | 6.4 | 16.1 | 0.00 | 0.00 | 0.00 | 51 | 1018.9 |
| 20260507121101 | 22 | 192 | 9.7 | 16.1 | 0.00 | 0.00 | 0.00 | 51 | 1019.0 |
| 20260507120826 | 22 | 199 | 8.0 | 19.3 | 0.00 | 0.00 | 0.00 | 53 | 1019.0 |
| 20260507120103 | 22 | 0 | 8.0 | 19.3 | 0.00 | 0.00 | 0.00 | 53 | 1019.1 |
| 20260507120052 | 22 | 0 | 9.7 | 17.7 | 0.00 | 0.00 | 0.00 | 54 | 1019.0 |
| 20260507115103 | 22 | 220 | 8.0 | 19.3 | 0.00 | 0.00 | 0.00 | 54 | 1019.0 |
| 20260507114601 | 21 | 0 | 6.4 | 19.3 | 0.00 | 0.00 | 0.00 | 54 | 1018.9 |
| 20260507114101 | 21 | 0 | 6.4 | 17.7 | 0.00 | 0.00 | 0.00 | 53 | 1018.8 |
| 20260507113823 | 21 | 241 | 9.7 | 17.7 | 0.00 | 0.00 | 0.00 | 52 | 1018.8 |
| 20260507113100 | 21 | 151 | 6.4 | 17.7 | 0.00 | 0.00 | 0.00 | 51 | 1018.8 |
| 20260507112602 | 22 | 0 | 9.7 | 17.7 | 0.00 | 0.00 | 0.00 | 51 | 1018.8 |
| 20260507112334 | 22 | 0 | 9.7 | 17.7 | 0.00 | 0.00 | 0.00 | 51 | 1018.8 |
| 20260507111602 | 21 | 0 | 8.0 | 17.7 | 0.00 | 0.00 | 0.00 | 51 | 1018.8 |
| 20260507111100 | 21 | 0 | 9.7 | 17.7 | 0.00 | 0.00 | 0.00 | 52 | 1018.8 |
| 20260507110601 | 21 | 0 | 8.0 | 19.3 | 0.00 | 0.00 | 0.00 | 52 | 1018.7 |
| 20260507110100 | 21 | 0 | 12.9 | 20.9 | 0.00 | 0.00 | 0.00 | 51 | 1018.8 |
| 20260507105600 | 21 | 178 | 11.3 | 20.9 | 0.00 | 0.00 | 0.00 | 50 | 1018.7 |
| 20260507105100 | 21 | 0 | 14.5 | 20.9 | 0.00 | 0.00 | 0.00 | 49 | 1018.8 |
| 20260507104600 | 21 | 0 | 11.3 | 20.9 | 0.00 | 0.00 | 0.00 | 51 | 1018.8 |
| 20260507104100 | 22 | 0 | 11.3 | 17.7 | 0.00 | 0.00 | 0.00 | 50 | 1018.8 |
| 20260507103600 | 22 | 0 | 4.8 | 16.1 | 0.00 | 0.00 | 0.00 | 51 | 1018.8 |
| 20260507103059 | 22 | 0 | 9.7 | 16.1 | 0.00 | 0.00 | 0.00 | 51 | 1018.6 |
| 20260507102559 | 21 | 186 | 8.0 | 17.7 | 0.00 | 0.00 | 0.00 | 52 | 1018.6 |
| 20260507102322 | 21 | 186 | 11.3 | 17.7 | 0.00 | 0.00 | 0.00 | 50 | 1018.6 |
| 20260507101559 | 21 | 203 | 8.0 | 17.7 | 0.00 | 0.00 | 0.00 | 50 | 1018.6 |
| 20260507101058 | 21 | 0 | 8.0 | 22.5 | 0.00 | 0.00 | 0.00 | 49 | 1018.7 |
| 20260507100824 | 21 | 185 | 9.7 | 22.5 | 0.00 | 0.00 | 0.00 | 51 | 1018.8 |